Hourly Data Report for June 17, 2020

FISHER BRANCH (AUT)
MANITOBA
Current Station Operator: ECCC - MSC

51°05'00.100" N
97°33'16.200" W
253.00 m
50309J6
71442
WSZ

Download Data

Hourly Data (June 2020)
Hourly Data Report for June 17, 2020
TIME
LST
Temp Definition
°C
Dew Point Definition
°C
Rel Hum Definition
%
Precip. Amount Definition
mm

Wind Dir Definition
10's deg

Wind Spd Definition
km/h
Visibility Definition
km
Stn Press Definition
kPa
Hmdx Definition


Wind Chill Definition


Weather Definition


00:00 19.8 17.0 84 0.0 13 12   97.28     LegendNANA
01:00 27.2 15.2 48 0.0 18 23   97.28 31   LegendNANA
02:00 26.1 15.4 52 0.0 18 19   97.27 30   LegendNANA
03:00 25.2 15.8 56 0.0 17 17   97.24 30   LegendNANA
04:00 25.0 15.8 57 0.0 17 20   97.21 29   LegendNANA
05:00 21.5 16.9 75 1.9 21 42   97.56 27   LegendNANA
06:00 19.7 15.8 78 1.5 27 15   97.17     LegendNANA
07:00 20.2 17.0 82 0.2 14 16   97.25 25   LegendNANA
08:00 23.2 17.5 70 0.0 16 14   97.36 29   LegendNANA
09:00 24.7 16.7 61 0.0 18 26   97.42 30   LegendNANA
10:00 27.2 16.9 54 0.0 18 24   97.40 32   LegendNANA
11:00 28.6 15.5 45 0.0 19 24   97.42 33   LegendNANA
12:00 29.4 16.2 45 0.0 21 26   97.40 34   LegendNANA
13:00 29.2 17.5 49 0.0 21 23   97.42 35   LegendNANA
14:00 28.9 17.3 50 0.0 21 22   97.43 34   LegendNANA
15:00 30.0 11.7 32 0.0 20 20   97.41 32   LegendNANA
16:00 28.2 11.8 36 0.0 20 18   97.42 30   LegendNANA
17:00 25.9 13.5 46 0.0 23 13   97.42 29   LegendNANA
18:00 26.0 14.4 49 0.0 22 6   97.39 30   LegendNANA
19:00 25.7 17.1 59 0.0 21 4   97.36 31   LegendNANA
20:00 23.9 18.4 71 0.0 11 8   97.34 30   LegendNANA
21:00 22.5 17.3 73 0.0 13 10   97.47 28   LegendNANA
22:00 14.6 11.6 82 0.0 34 20   97.62     LegendNANA
23:00 12.6 10.4 87 0.0 33 19   97.67     LegendNANA

Notes on Data Quality.

Legend

  • E = Estimated
  • M = Missing
  • NA = Not Available*
  • [empty] = Indicates an unobserved value
Date modified: